Location: Crayja
(6.2254°N, 10.6273°W)
Time: 10:15:54
(UTC+00:00)

Cosmos 1603 - Pass Details

Date: 17 February 2020
Orbit: 833 x 858 km, 71.0° (Epoch: 28 March)

Event Time Altitude Azimuth Distance (km) Brightness Sun altitude
Rises 04:38:54 0° 186° (S) 3,423 6.9 -34.9°
Enters shadow 04:38:54 - 186° (S) 3,422 6.9 -34.9°
Exits shadow 04:47:02 55° 103° (ESE) 1,024 4.3 -32.9°
Drops below altitude 10° 04:52:31 10° 28° (NNE) 2,476 6.3 -31.6°
Sets 04:55:00 0° 24° (NNE) 3,408 7.0 -31.0°
